Content
SEND FEEDBACK

Daily
Averages
Monthly
Summary
United States of America

SAVANNAH - HUNTER ARMY AIRFIELD, GEORGIA


Home > North America > United States > Georgia
Elevation: 2 feet     Latitude: 32 00N     Longitude: 081 16W

WEATHER
 
SELECT A DAY
Number of Records: 200,019;   Date Range: 1/1/95 - 7/20/14
 
SHARE

PRINT THIS DATA

[ ← Previous Day ]
WEATHER ALMANAC - JANUARY 31, 2013
[ Next Day → ]
[ °C ]   °F
Weather ElementAverageHighLow
Temperature49.6 °F55.9 °F (1:53 pm)41 °F (10:53 pm)
Dewpoint31.2 °F51.8 °F (12:47 am)19.9 °F (4:53 pm)
Humidity52.7 %90 % (12:53 am)25 % (4:53 pm)
Barometer30.04 in30.23 in (10:53 pm)29.81 in (12:47 am)
Wind Speed13.6 mph23 mph (3:53 pm)
Wind Gust27.6 mph (3:53 am)
Weather ElementAverage
Visibility10 mi
Wind DirectionW (266.9 °)

Weather ElementTotal
Precipitation0.06 in
Heating Degree Days16.6 (Base 65)
Averaged from 26 records on January 31, 2013
WEATHER CONDITIONS BREAKOUT
WIND DIRECTION BREAKOUT
WEATHER BY HOUR - JANUARY 31, 2013
[ °C ]   °F
Local TimeTemperatureDewpointHumidityBarometerVisibilityWind DirectionWind SpeedGust SpeedPrecipitationEventsConditions
12:47 AM55.4 °F51.8 °F88 %29.81 in10.0 miWSW (240°)11.5 mph0.03 inMostly Cloudy
12:53 AM54.0 °F51.1 °F90 %29.81 in10.0 miSW (220°)12.7 mph19.6 mph0.03 inMostly Cloudy
1:53 AM54.0 °F50.0 °F86 %29.84 in10.0 miWSW (240°)11.5 mphOvercast
2:31 AM53.6 °F48.2 °F82 %29.85 in10.0 miWest (260°)11.5 mphOvercast
2:53 AM53.1 °F46.9 °F80 %29.85 in10.0 miWest (260°)16.1 mph21.9 mphMostly Cloudy
3:53 AM52.0 °F41.0 °F66 %29.89 in10.0 miWest (280°)19.6 mph27.6 mphScattered Clouds
4:53 AM48.9 °F37.0 °F64 %29.92 in10.0 miWest (280°)17.3 mph26.5 mphScattered Clouds
5:53 AM46.9 °F33.1 °F59 %29.96 in10.0 miWest (270°)17.3 mph25.3 mphScattered Clouds
6:53 AM45.0 °F30.9 °F58 %30.00 in10.0 miWest (270°)15.0 mph24.2 mphPartly Cloudy
7:53 AM44.1 °F28.9 °F55 %30.04 in10.0 miWest (280°)13.8 mph26.5 mphClear
8:53 AM45.0 °F27.0 °F49 %30.06 in10.0 miWest (280°)21.9 mph27.6 mphClear
9:53 AM46.0 °F25.0 °F44 %30.08 in10.0 miWNW (290°)18.4 mph26.5 mphClear
10:53 AM48.9 °F26.1 °F41 %30.09 in10.0 miWNW (290°)17.3 mphClear
11:53 AM52.0 °F25.0 °F35 %30.09 in10.0 miWest (270°)13.8 mph19.6 mphClear
12:53 PM54.0 °F25.0 °F33 %30.08 in10.0 miWest (280°)11.5 mph26.5 mphClear
1:53 PM55.9 °F21.9 °F27 %30.07 in10.0 miWest (280°)21.9 mph26.5 mphClear
2:53 PM55.9 °F21.9 °F27 %30.07 in10.0 miWest (280°)16.1 mphClear
3:53 PM55.9 °F21.0 °F26 %30.09 in10.0 miWest (270°)23.0 mph27.6 mphClear
4:53 PM55.0 °F19.9 °F25 %30.10 in10.0 miWest (280°)18.4 mph25.3 mphClear
5:53 PM52.0 °F21.0 °F30 %30.12 in10.0 miWest (280°)8.1 mphClear
6:53 PM46.9 °F24.1 °F41 %30.15 in10.0 miWest (260°)4.6 mphClear
7:53 PM44.1 °F25.0 °F47 %30.17 in10.0 miWSW (250°)5.8 mphClear
8:53 PM46.0 °F25.0 °F44 %30.19 in10.0 miWSW (240°)4.6 mphClear
9:53 PM44.1 °F28.0 °F53 %30.21 in10.0 miWest (260°)6.9 mphClear
10:53 PM41.0 °F28.0 °F60 %30.23 in10.0 miWest (270°)8.1 mphClear
11:53 PM41.0 °F28.0 °F60 %30.23 in10.0 miWest (260°)5.8 mphClear
Hourly data recorded from KSAV, located miles away from Savannah - Hunter Army Airfield, Georgia







STORIES FROM OUR PARTNERS